Tracking 21092 objects as of 14-Aug-2020
HD Live streaming from Space Station
objects crossing your sky now
Track the most recent launched group of Starlink satellites

GAOFEN 9 03

Track GAOFEN 9 03 now!
10-day predictions


NORAD ID: 45794
Int'l Code: 2020-039A
Perigee: 492.8 km
Apogee: 511.7 km
Inclination: 97.3 °
Period: 94.5 minutes
Semi major axis: 6873 km
RCS: Unknown
Launch date: June 17, 2020
Source: People's Republic of China (PRC)
Launch site: Jiuquan Satellite Launch Center, China (JSC)
aabbcc
Your satellite tracking list
Your tracking list is empty




NASA's NSSDC Master Catalog

Two Line Element Set (TLE):
1 45794U 20039A   20227.22410105  .00000582  00000-0  27183-4 0  9991
2 45794  97.3274 347.4550 0013705  81.8844 126.5836 15.23559275  8812
Source of the keplerian elements: AFSPC